www.pogodaiklimat.ru
ПОГОДА в Тустла-Гутьерресе
Время
(UTC), дата
09 28.07
12 28.07
15 28.07
18 28.07
21 28.07
00 29.07
03 29.07
09 29.07
12 29.07
15 29.07
18 29.07
21 29.07
00 30.07
03 30.07
06 30.07
09 30.07
12 30.07
15 30.07
18 30.07
21 30.07
00 31.07
03 31.07
06 31.07
09 31.07
12 31.07
15 31.07
18 31.07
21 31.07
00 1.08
03 1.08
12 1.08
15 1.08
18 1.08
21 1.08
00 2.08
03 2.08
06 2.08
12 2.08
15 2.08
18 2.08
21 2.08
00 3.08
03 3.08
06 3.08
09 3.08
12 3.08
15 3.08
18 3.08
21 3.08
00 4.08
03 4.08
Ветер
(напр.,м/с)
Видим. Явления Облачность Т
(С)
Тd
(С)
f
(%)
Тe
(С)
Тes
(С)
Комфортность P
(гПа)
Po
(гПа)
Тmin
(С)
Tmax
(С)
R
(мм)
R24
(мм)
S
(см)
Ю 1 15 км 9/9 500 м
[Frnb]
+22.6 +21.6 94 +30 +30 очень
душно
1011.0 947.5
В 1 15 км 9/9 420 м
[St]
+22.2 +21.5 96 +29 +29 очень
душно
1012.3 948.4 +21.5 +36.3 45.4
ЮВ 1 15 км 9/9 300 м
[St]
+24.4 +21.9 86 +31 +33 очень
душно
1014.1 950.2
ЮВ 1 15 км 6/4 540 м
[Cu hum Cs]
+28.4 +21.8 67 +36 +51 опасность
солнечного
удара
1012.4 948.8 +21.5 +29.6
ЮВ 1 15 км 8/6 630 м
[Cu hum Cs]
+31.6 +21.7 56 +40 +46 очень
душно
1009.1 946.1
СЗ 3 15 км 8/5 540 м
[St Ac trans Cs]
+28.4 +21.8 67 +36 +36 очень
душно
1008.1 945.6 +21.5 +33.6 7.1
СЗ 2 15 км 8/4 480 м
[St Ac trans Cs]
+26.6 +22.2 77 +35 +35 очень
душно
1010.0 947.6
З 1 15 км 4/3 360 м
[St Cs]
+25.0 +22.2 84 +32 +32 очень
душно
1010.0 947.2
ЮЗ 1 15 км 5/3 330 м
[St Cs]
+24.2 +22.0 88 +31 +31 очень
душно
1010.9 947.8 +22.8 +33.6
ЮВ 5 15 км 4/3 700 м
[Cu med, cong Cc]
+28.0 +22.8 73 +37 +41 очень
душно
1012.0 948.8
СВ 1 15 км 5/5 720 м
[Cu med, cong]
+33.4 +20.6 47 +40 +53 опасность
солнечного
удара
1010.6 947.8 +22.8 +32.8
С 6 15 км 3/3 720 м
[Cu med, cong]
+31.9 +22.8 59 +42 +46 опасность
перегрева
1006.7 944.5
С 8 15 км морось {дождь} 10/3 720 м
[Cu med, cong Ac As]
+27.7 +23.4 77 +37 +37 очень
душно
1006.9 944.9 +22.9 +34.7 0.5 0.5
З 1 15 км слаб. дождь 4/0
[Ac As]
+23.8 +21.3 86 +30 +30 очень
душно
1008.3 946.1 2
штиль 0 15 км слаб. дождь 6/1 300 м
[Cu hum Ac As]
+24.2 +22.3 89 +31 +31 очень
душно
1009.8 947.1 2
Ю 1 15 км 5/1 500 м
[Cu hum Ac As]
+23.3 +21.0 87 +31 +31 очень
душно
1008.7 945.7
ЮВ 3 15 км 6/1 240 м
[Cu hum Ac As]
+22.9 +21.5 92 +31 +31 очень
душно
1011.8 948.2 +22.5 +34.7 2.7
штиль 0 15 км 6/4 840 м
[Cu med, cong Ac trans]
+27.7 +21.5 69 +35 +42 очень
душно
1013.8 950.2
ЮЗ 1 15 км 8/4 840 м
[Cu med, cong Ac trans Ci ing]
+31.2 +21.7 57 +40 +50 очень
душно
1011.9 948.8 +22.5 +31.5
СЗ 2 15 км 8/4 840 м
[Cu med, cong Ci ing]
+34.6 +21.2 46 +42 +49 опасность
перегрева
1009.0 946.5
ЮВ 1 15 км 9/3 840 м
[Cu med, cong As op Ci]
+27.4 +21.0 68 +34 +35 очень
душно
1008.8 946.6 +22.5 +35.2
З 1 15 км слаб. морось 10/10
[Cu med, cong]
+22.3 +21.9 98 +30 +30 очень
душно
1012.3 949.7 1
З 1 15 км {снег} 1/1 840 м
[Cu med, cong]
+22.2 +20.8 92 +29 +29 очень
душно
1011.9 949.2 +21.8 +35.2 0.6
В 1 15 км 4/4 800 м
[Cu med, cong]
+22.2 +20.8 92 +29 +29 очень
душно
1011.9 948.4
штиль 0 15 км 4/3 420 м
[St Ci]
+21.9 +19.9 88 +28 +28 душно 1012.6 948.8 +21.5 +35.2 1.9
В 1 15 км 5/4 750 м
[Cu hum Ci fib]
+28.1 +21.1 66 +35 +43 очень
душно
1014.5 950.6
З 1 15 км 3/3 750 м
[Cu hum]
+31.8 +21.0 53 +39 +58 опасность
солнечного
удара
1012.9 949.5 +21.5 +31.9
СЗ 1 15 км 5/5 750 м
[Frnb]
+34.1 +22.5 51 +43 +51 опасность
перегрева
1009.7 947.0
С 1 15 км 1/1 750 м
[Cu hum]
+29.7 +22.8 67 +40 +40 очень
душно
1008.9 946.7 +21.5 +34.7 1.9
З 1 15 км 1/1 750 м
[Cu hum]
+26.5 +22.1 77 +34 +34 очень
душно
1010.5 948.3
З 1 15 км 1/0
[Ci fib]
+22.9 +20.5 86 +30 +30 очень
душно
1011.7 948.4 +22.7 +34.7
З 1 15 км 6/1 700 м
[Cu hum Ci sp]
+29.9 +29.9 100 +55 +65 опасность
перегрева
1012.7 949.4
ЮЗ 1 15 км 8/4 840 м
[Cu med, cong Ci sp]
+32.7 +20.5 49 +40 +53 опасность
солнечного
удара
1011.3 948.3 +22.7 +33.1
З 3 15 км 8/4 1050 м
[Cu med, cong Ci sp]
+34.9 +22.8 50 +45 +51 опасность
перегрева
1007.8 945.6
ЮЗ 2 15 км в посл. час дождь 8/6 840 м
[Cb calv Ci sp]
+24.1 +22.7 92 +32 +32 очень
душно
1008.4 946.3 +22.7 +35.1 36 35.8
З 2 15 км 4/1 2000 м
[Cb calv Ci fib]
+24.3 +21.8 86 +31 +31 очень
душно
1010.2 947.8
З 3 15 км 4/1 630 м
[Cu hum Ac trans Ci fib]
+24.2 +21.3 84 +31 +31 очень
душно
1012.1 949.3 +22.7 +35.1
З 2 15 км 5/0
[Ci sp]
+23.1 +20.6 86 +30 +30 очень
душно
1012.2 948.7 +22.9 +35.1 36.2
З 2 15 км 1/1 700 м
[Cu hum]
+27.9 +21.5 68 +36 +45 очень
душно
1013.0 949.5
ЮЗ 1 15 км 3/3 840 м
[Cu med, cong]
+31.3 +22.0 58 +40 +58 опасность
солнечного
удара
1011.6 948.5 +22.9 +31.7
З 2 15 км 5/4 800 м
[Cu med, cong Ac trans]
+31.7 +22.7 59 +41 +48 опасность
перегрева
1009.2 946.6
З 2 15 км 4/1 840 м
[Cu med, cong Ac trans Ci ing]
+29.3 +22.2 66 +38 +38 очень
душно
1008.3 946.1 +22.9 +33.6
З 2 15 км 3/1 700 м
[Cu hum Ci]
+25.5 +21.9 81 +33 +33 очень
душно
1010.5 948.2
З 2 15 км 4/1 700 м
[Cu med, cong Ac trans]
+24.8 +21.3 81 +31 +31 очень
душно
1011.9 949.3 +22.9 +36.3
ЮЗ 1 15 км 4/3 700 м
[Cu hum Ac trans]
+24.1 +21.6 86 +31 +31 очень
душно
1011.5 948.6
З 1 15 км в посл. час зёрна 3/1 700 м
[Cu med, cong Ac trans]
+23.3 +21.9 92 +32 +32 очень
душно
1012.8 949.4 +22.8 +33.6 0.0 0.0
ЮЗ 1 15 км 3/1 500 м
[Cu med, cong Cs]
+27.6 +21.8 71 +36 +46 очень
душно
1013.9 950.4
ЮЗ 1 15 км 5/4 700 м
[Cu hum Cs]
+31.8 +22.9 59 +42 +57 опасность
перегрева
1012.7 949.6 +22.8 +33.4
СЗ 3 15 км слаб. морось 9/4 500 м
[Cu med, cong As op Cs]
+29.6 +23.1 68 +40 +43 очень
душно
1009.8 947.2 0.0
СЗ 2 15 км 8/4 480 м
[St Ac trans Cs]
+27.6 +22.7 75 +37 +37 очень
душно
1010.2 947.8 +22.8 +33.4 0.0
СЗ 3 15 км 8/3 400 м
[St As op]
+24.8 +21.1 80 +31 +31 очень
душно
1012.4 949.8
Местоположение метеостанции Тустла-Гутьеррес (Мексика): широта 16.75 долгота -93.13 высота над уровнем моря 576 м.
В архиве по умолчанию представлена погода в Тустла-Гутьерресе за последнюю неделю. Архивные данные за месяц целиком и за предыдущие месяцы, начиная с января 2011 года, Вы можете получить, выбрав интересующий диапазон дат из раскрывающегося списка и нажав кнопку "Найти!".
*Определитесь, кто Вы:
Внимание! Время в таблицах - всемирное. Для получения местного времени необходимо прибавить поправку, которая равна -6 ч.
Смотрите также архив погоды в соседних городах и на ближайших метеорологических станциях:
Партнеры нашего сайта:      
Пояснения к столбцам:
  • Ветер - указаны скорость ветра в м/с - средняя за 10 мин, порывы в срок и между сроками (в фигурных скобках) и направление, откуда дует ветер: С - северный,
  • СВ - северо-восточный, В - восточный, ЮВ - юго-восточный, Ю - южный, ЮЗ - юго-западный, З - западный, СЗ - северо-западный.
  • Видимость - горизонтальная дальность видимости в метрах или километрах. При видимости от 1 до 10 км при отсутствии осадков обычно наблюдается дымка, при ухудшении видимости до 1 км и менее - туман. В сухую погоду видимость может ухудшаться дымом, пылью или мглою.
  • Явления - указаны атмосферные явления, наблюдавшиеся в срок или в последний час перед сроком; фигурными скобками обозначены явления, наблюдавшиеся между сроками (за 1-3 часа до срока); квадратными скобками обозначены град или гололедные отложения с указанием их диаметра в мм.
  • Облачность - указаны через наклонную черту общая и нижняя облачность в баллах и высота нижней границы облаков в метрах; квадратными скобками обозначены формы облаков: Ci - перистые, Cs - перисто-слоистые, Cc - перисто-кучевые, Ac - высококучевые, As - высокослоистые, Sc - слоисто-кучевые, Ns - слоисто-дождевые, Cu - кучевые, Cb - кучево-дождевые. Подробнее классификацию облаков см. в Атласе облаков (PDF).
  • T - Температура воздуха - температура, измеренная на высоте 2 м над землей.
  • Td - Температура точки росы - температура, при понижении до которой содержащийся в воздухе водяной пар достигнет насыщения.
  • f - Относительная влажность воздуха - влажноcть воздуха, измеренная на высоте 2 м над землей.
  • Te - Эффективная температура - температура, которую ощущает одетый по сезону человек в тени. Характеристика душности погоды. При расчете учитывается влияние влажности воздуха и скорости ветра на теплоощущения человека.
  • Tes - Эффективная температура на солнце - температура, которую ощущает человек, с поправкой на солнечный нагрев. Характеристика знойности погоды. Зависит от высоты солнца над горизонтом, облачности и скорости ветра. Ночью, в пасмурную погоду, а также при ветре 12 м/с и более поправка равна нулю.
  • P - Атмосферное давление - приведенное к уровню моря атмосферное давление.
  • Po - Атмосферное давление - измеренное на уровне метеостанции атмосферное давление.
  • Tmin - Минимальная температура - минимум температуры воздуха на высоте 2 м над землей.
  • Tmax - Максимальная температура - максимум температуры воздуха на высоте 2 м над землей.
  • R - Количество осадков - Количество выпавших осадков за период времени, мм. При наведении курсора мыши на число - период времени, за который выпало указанное количество осадков.
  • R24 - Количество осадков - Количество выпавших осадков за 24 часа, мм.
  • S - Снежный покров - Высота снежного покрова, см. При наведении курсора мыши на число - состояние снежного покрова и степень покрытия местности в баллах.